Flag for U.S.A. Weather past 2 weeks in Waterbury, Connecticut, U.S.A.

Now
16 °F

Partly sunny.


Feels Like: -1 °F
Forecast: 15 / 26 °F
Wind: 18 mph from North

Location: Oxford

Current Time: Jan 28, 2015 at 11:19:06 AM

Latest Report: Jan 28, 2015 at 10:50 AM


Visibility: 10 mi

Pressure: 29.97 "Hg

Humidity: 53%

Dew point: 1 °F

Location of WaterburyLocation

Historic Weather in Waterbury — Graph

°F

Waterbury temperature yesterday

Maximum temperature yesterday: 19 °F (at 12:15 AM)
Minimum temperature yesterday: 10 °F (at 11:55 PM)
Average temperature yesterday: 17 °F

Past Weeks' High & Low Weather Summary

 TemperatureHumidityPressure
High46 °F (Jan 18, 1:04 PM)87% (Jan 18, 2:50 PM)30.60 "Hg (Jan 18, 2:50 PM)
Low9 °F (Jan 14, 12:55 AM)25% (Jan 21, 2:50 PM)29.21 "Hg (Jan 24, 3:50 PM)
Average24 °F56%29.96 "Hg
* Reported Jan 13 9:50 AM — Jan 28 9:50 AM, Waterbury, Weather by CustomWeather, © 2014

Note: Actual official high and low records may vary slightly from our data, if they occured in-between our weather recording intervals... More about our weather records

Advertising

Waterbury weather history for previous 24 hours

 ConditionsComfort  
Time TempWeatherWind HumidityBarometerVisibility
9:50 AM
Jan 28
16 °FPartly sunny.18 mph53%29.94 "Hg10 mi
8:55 AM16 °FBroken clouds.20 mph45%29.92 "Hg10 mi
7:50 AM12 °FPartly sunny.14 mph52%29.91 "Hg10 mi
6:50 AM12 °FPassing clouds.9 mph52%29.89 "Hg10 mi
5:50 AM12 °FPassing clouds.8 mph52%29.86 "Hg10 mi
5:35 AM12 °FMostly cloudy.10 mph52%29.85 "Hg10 mi
5:15 AM12 °FPassing clouds.12 mph52%29.85 "Hg10 mi
4:55 AM12 °FPartly cloudy.8 mph52%29.84 "Hg10 mi
4:35 AM12 °FPartly cloudy.9 mph52%29.83 "Hg10 mi
3:55 AM12 °FOvercast.14 mph52%29.81 "Hg10 mi
3:35 AM12 °FOvercast.12 mph57%29.80 "Hg10 mi
3:15 AM12 °FOvercast.13 mph52%29.79 "Hg10 mi
2:55 AM12 °FOvercast.12 mph52%29.79 "Hg10 mi
2:35 AM12 °FOvercast.14 mph52%29.78 "Hg10 mi
2:15 AM12 °FPassing clouds.10 mph52%29.77 "Hg10 mi
1:55 AM12 °FPassing clouds.12 mph52%29.76 "Hg10 mi
1:35 AM12 °FOvercast.16 mph57%29.75 "Hg10 mi
1:15 AM12 °FMostly cloudy.17 mph57%29.74 "Hg5 mi
12:55 AM12 °FOvercast.17 mph57%29.73 "Hg7 mi
12:35 AM12 °FMostly cloudy.20 mph57%29.74 "Hg6 mi
12:15 AM10 °FOvercast.20 mph61%29.74 "Hg2 mi
11:55 PM
Jan 27
10 °FMostly cloudy.17 mph61%29.74 "Hg2 mi
11:35 PM12 °FMostly cloudy.23 mph52%29.74 "Hg3 mi
11:15 PM12 °FMostly cloudy.21 mph52%29.73 "Hg4 mi
10:55 PM12 °FMostly cloudy.18 mph57%29.73 "Hg5 mi
10:35 PM12 °FOvercast.22 mph57%29.72 "Hg3 mi
9:55 PM12 °FOvercast.23 mph57%29.71 "Hg2 mi
9:35 PM12 °FMostly cloudy.20 mph57%29.70 "Hg2 mi
9:15 PM14 °FPassing clouds.17 mph52%29.70 "Hg6 mi
8:52 PM14 °FPassing clouds.25 mph52%29.69 "Hg10 mi
7:52 PM16 °FOvercast.21 mph48%29.67 "Hg10 mi
5:55 PM16 °FClear.18 mph34%29.63 "Hg10 mi
4:55 PM18 °FScattered clouds.12 mph49%29.60 "Hg10 mi
3:55 PM18 °FScattered clouds.12 mph53%29.59 "Hg10 mi
2:55 PM18 °FPassing clouds.14 mph49%29.59 "Hg10 mi
1:50 PM18 °FPassing clouds.14 mph53%29.58 "Hg10 mi
12:50 PM18 °FLight snow. Partly sunny.17 mph58%29.58 "Hg5 mi
11:55 AM18 °FLight snow. Mostly cloudy.12 mph68%29.58 "Hg2 mi
Weather by CustomWeather, © 2014

See weather overviewHow to use our weather pages